Location: Peabody
(39.8775°N, 89.6009°W)
Time: 15:58:22
(UTC+00:00)

Daily predictions for brighter satellites

Satellite Brightness Start Highest point End
(mag) Time Altitude Azimuth Time Altitude Azimuth Time Altitude Azimuth
Cosmos 1818 3.8 12:00:17 10° SW 12:05:33 52° NW 12:10:53 10° NNE
Cosmos 1570 Rocket 4.1 12:00:33 10° NNW 12:05:49 61° WSW 12:11:04 10° S
COSMOS 2406 3.2 12:03:14 10° SSW 12:08:52 76° WNW 12:14:33 10° NNE
Meteor 1-20 Rocket 4.3 12:03:10 10° NNW 12:08:55 79° W 12:14:45 10° S
Cosmos 1833 Rocket 3.3 12:05:35 10° S 12:11:08 63° ESE 12:16:43 10° NNE
ATLAS 2AS CENTAUR R/B 2.8 12:03:44 10° NW 12:11:13 76° WSW 12:18:01 10° SSE
